COSMOS 397 DEB, 5222

Orbit data source: Space-Track

COSMOS 397 DEB, 5222 is space debris in LEO originally from a launch on Thu, 25 Feb 1971 UTC launched from the Tyuratam Missile And Space Complex (TTMTR). Debris objects in space refer to the collection of defunct objects orbiting the Earth. Examples of debris include non-operational satellites, rocket bodies, and fragments generated from explosions, collisions, or faulty payload assembly.

Loading next visibility...
Identifier
5222, 1971-015AW
Orbit
LEO
Country
Flag of CISCIS
Related business
Manufacturer
Unknown
Mission
Spacecraft
Bus & Motor
Unknown
Mass
Unknown
Launch date (UTC)
1971-02-25 (55 years ago)
Launch vehicle
Unknown
Launch site
Tyuratam Missile And Space Complex (TTMTR)
Object type
Payload
Rocket body
Debris
Shape & HBR
Unknown shape, 0.1 m
Radar Cross Section
Small (<0.1 m²)

Expand to show TLE details & history
Last TLE update: 16 hours ago

TLE from 16 hours ago
0 COSMOS 397 DEB
1 05222U 71015AW  25349.76584867  .00000825  00000-0  28886-3 0  9999
2 05222  65.7203 123.4362 0649868  22.0062 340.7582 13.60885804636265
Epoch: 2025-12-15T18:22Z
TLE epoch observation values (Epoch: 2025-12-15T18:22:49.325Z)
Latitude
-0.00002°
Longitude
123.07096°
Altitude
583.44 km
Speed
7.796 km/s
True Right ascension
08h 13m 44s
True Declination
0° 00' 00"
Sunlit
Object was in full shadow at epoch
Visualization orbit readout
Latitude
Unknown
Longitude
Unknown
Altitude
Unknown
Speed
Unknown
Apparent Right ascension
Unknown
Apparent Declination
Unknown
Sunlit
N/A
Visualization observer readout
Local Sidereal Time
08:42:47
Azimuth
Unknown
Elevation
Unknown
Doppler factor
Unknown
Orbital elements
Apogee altitude
1,512.502 km
Perigee altitude
549.509 km
Semi-major axis
7,409.143 km
Eccentricity
0.06499
Inclination
65.7203°
RAAN
123.4362°
Arg. of periapsis
22.0062°
True anomaly
338.10187°
Mean anomaly
340.7582°
Eccentric anomaly
339.45125°
Mean motion
3.40323 °/min
Orbital period
105.78 mins
BSTAR
0.00028886
Loading maneuver chart data...
Computing Atmospheric mass density...
Loading historical data...
Loading historical data...
Loading historical data...
Loading historical data...
Loading historical data...
Loading historical data...
Loading historical data...

Documentation

Showing up to 5 results
|